• en Suisse
  • Liste des pays
  • À 7 jours
  • Température de l'eau
  • Carte satellitaire
  • Carte météo
  • Widgets météo
  • user-avatar
    Se connecter

    Météo par heure à Balho

    Ce jour, 26 Septembre, Mercredi

    Heure Température Précipitation Vent Pression Humidité
    00:00 +34°C° 0 mm 4 m/s 735 mmHg 54%
    01:00 +34°C° 0 mm 3 m/s 734 mmHg 56%
    02:00 +34°C° 0 mm 3 m/s 734 mmHg 58%
    03:00 +33°C° 0 mm 3 m/s 734 mmHg 60%
    04:00 +33°C° 0 mm 3 m/s 734 mmHg 61%
    05:00 +32°C° 0 mm 2 m/s 734 mmHg 62%
    06:00 +31°C° 0 mm 2 m/s 735 mmHg 63%
    07:00 +32°C° 0 mm 2 m/s 735 mmHg 58%
    08:00 +34°C° 0 mm 2 m/s 735 mmHg 54%
    09:00 +35°C° 0 mm 2 m/s 736 mmHg 47%
    10:00 +36°C° 0 mm 2 m/s 736 mmHg 42%
    11:00 +37°C° 0 mm 1 m/s 735 mmHg 38%
    12:00 +39°C° 0 mm 1 m/s 735 mmHg 33%
    13:00 +39°C° 0 mm 1 m/s 734 mmHg 30%
    14:00 +40°C° 0 mm 1 m/s 734 mmHg 28%
    15:00 +41°C° 0 mm 1 m/s 733 mmHg 25%
    16:00 +40°C° 0 mm 2 m/s 733 mmHg 26%
    17:00 +40°C° 0 mm 2 m/s 733 mmHg 27%
    18:00 +40°C° 0 mm 2 m/s 733 mmHg 28%
    19:00 +39°C° 0 mm 3 m/s 733 mmHg 32%
    20:00 +38°C° 0 mm 4 m/s 733 mmHg 37%
    21:00 +37°C° 0 mm 4 m/s 734 mmHg 41%
    22:00 +37°C° 0 mm 4 m/s 734 mmHg 45%
    23:00 +36°C° 0 mm 4 m/s 734 mmHg 48%

    Demain, 27 Septembre, Jeudi

    Heure Température Précipitation Vent Pression Humidité
    00:00 +35°C° 0 mm 3 m/s 734 mmHg 52%
    01:00 +35°C° 0 mm 3 m/s 734 mmHg 53%
    02:00 +34°C° 0 mm 3 m/s 734 mmHg 55%
    03:00 +34°C° 0 mm 3 m/s 733 mmHg 57%
    04:00 +32°C° 0 mm 2 m/s 734 mmHg 58%
    05:00 +32°C° 0 mm 2 m/s 734 mmHg 59%
    06:00 +32°C° 0 mm 2 m/s 734 mmHg 60%
    07:00 +34°C° 0 mm 2 m/s 735 mmHg 55%
    08:00 +34°C° 0 mm 1 m/s 735 mmHg 50%
    09:00 +34°C° 0 mm 1 m/s 736 mmHg 46%
    10:00 +36°C° 0 mm 1 m/s 736 mmHg 39%
    11:00 +37°C° 0 mm 1 m/s 735 mmHg 33%
    12:00 +40°C° 0 mm 1 m/s 735 mmHg 27%
    13:00 +40°C° 0 mm 1 m/s 734 mmHg 24%
    14:00 +41°C° 0 mm 2 m/s 733 mmHg 21%
    15:00 +42°C° 0 mm 2 m/s 733 mmHg 18%
    16:00 +42°C° 0 mm 2 m/s 733 mmHg 19%
    17:00 +42°C° 0 mm 3 m/s 733 mmHg 19%
    18:00 +42°C° 0 mm 3 m/s 732 mmHg 19%
    19:00 +41°C° 0 mm 4 m/s 733 mmHg 23%
    20:00 +40°C° 0 mm 4 m/s 734 mmHg 26%
    21:00 +40°C° 0 mm 4 m/s 734 mmHg 29%
    22:00 +38°C° 0 mm 4 m/s 734 mmHg 32%
    23:00 +37°C° 0 mm 4 m/s 734 mmHg 34%

    Après-demain, 28 Septembre, Vendredi

    Heure Température Précipitation Vent Pression Humidité
    00:00 +36°C° 0 mm 3 m/s 734 mmHg 36%
    01:00 +36°C° 0 mm 3 m/s 734 mmHg 37%
    02:00 +35°C° 0 mm 2 m/s 734 mmHg 38%
    03:00 +35°C° 0 mm 2 m/s 733 mmHg 38%
    04:00 +33°C° 0 mm 1 m/s 734 mmHg 39%
    05:00 +33°C° 0 mm 1 m/s 734 mmHg 39%
    06:00 +33°C° 0 mm 1 m/s 734 mmHg 39%
    07:00 +34°C° 0 mm 1 m/s 735 mmHg 35%
    08:00 +35°C° 0 mm 1 m/s 735 mmHg 32%
    09:00 +36°C° 0 mm 1 m/s 736 mmHg 28%
    10:00 +37°C° 0 mm 1 m/s 736 mmHg 24%
    11:00 +39°C° 0 mm 1 m/s 735 mmHg 21%
    12:00 +40°C° 0 mm 1 m/s 735 mmHg 18%
    13:00 +41°C° 0 mm 1 m/s 734 mmHg 17%
    14:00 +42°C° 0 mm 1 m/s 733 mmHg 16%
    15:00 +42°C° 0 mm 1 m/s 733 mmHg 15%
    16:00 +42°C° 0 mm 2 m/s 732 mmHg 16%
    17:00 +42°C° 0 mm 2 m/s 732 mmHg 17%
    18:00 +42°C° 0 mm 2 m/s 732 mmHg 17%
    19:00 +41°C° 0 mm 2 m/s 733 mmHg 20%
    20:00 +40°C° 0 mm 3 m/s 733 mmHg 22%
    21:00 +40°C° 0 mm 3 m/s 734 mmHg 25%
    22:00 +39°C° 0 mm 3 m/s 734 mmHg 27%
    23:00 +38°C° 0 mm 3 m/s 734 mmHg 28%

    29 Septembre, Samedi

    Heure Température Précipitation Vent Pression Humidité
    00:00 +38°C° 0 mm 3 m/s 734 mmHg 30%
    01:00 +37°C° 0 mm 3 m/s 733 mmHg 31%
    02:00 +36°C° 0 mm 2 m/s 733 mmHg 32%
    03:00 +36°C° 0 mm 2 m/s 733 mmHg 33%
    04:00 +35°C° 0 mm 2 m/s 733 mmHg 35%
    05:00 +35°C° 0 mm 2 m/s 733 mmHg 37%
    06:00 +34°C° 0 mm 2 m/s 734 mmHg 39%
    07:00 +35°C° 0 mm 2 m/s 734 mmHg 36%
    08:00 +36°C° 0 mm 2 m/s 735 mmHg 33%
    09:00 +37°C° 0 mm 2 m/s 735 mmHg 31%
    10:00 +38°C° 0 mm 2 m/s 735 mmHg 28%
    11:00 +39°C° 0 mm 2 m/s 735 mmHg 25%
    12:00 +40°C° 0 mm 1 m/s 734 mmHg 22%
    13:00 +40°C° 0 mm 2 m/s 733 mmHg 20%
    14:00 +41°C° 0 mm 2 m/s 733 mmHg 19%
    15:00 +42°C° 0 mm 2 m/s 732 mmHg 18%
    16:00 +42°C° 0 mm 3 m/s 732 mmHg 18%
    17:00 +42°C° 0 mm 3 m/s 732 mmHg 19%
    18:00 +42°C° 0 mm 4 m/s 733 mmHg 19%
    19:00 +41°C° 0 mm 4 m/s 733 mmHg 21%
    20:00 +40°C° 0 mm 5 m/s 734 mmHg 23%
    21:00 +39°C° 0 mm 5 m/s 734 mmHg 25%
    22:00 +37°C° 0 mm 5 m/s 734 mmHg 29%
    23:00 +36°C° 0 mm 5 m/s 734 mmHg 33%

    30 Septembre, Dimanche

    Heure Température Précipitation Vent Pression Humidité
    00:00 +35°C° 0 mm 4 m/s 733 mmHg 37%
    01:00 +35°C° 0 mm 4 m/s 733 mmHg 41%
    02:00 +34°C° 0 mm 4 m/s 733 mmHg 46%
    03:00 +33°C° 0 mm 3 m/s 733 mmHg 51%
    04:00 +33°C° 0 mm 3 m/s 733 mmHg 54%
    05:00 +31°C° 0 mm 3 m/s 734 mmHg 57%
    06:00 +31°C° 0 mm 3 m/s 735 mmHg 59%
    07:00 +33°C° 0 mm 3 m/s 735 mmHg 54%
    08:00 +34°C° 0 mm 4 m/s 736 mmHg 49%
    09:00 +35°C° 0 mm 4 m/s 736 mmHg 44%
    10:00 +36°C° 0 mm 4 m/s 736 mmHg 39%
    11:00 +38°C° 0 mm 4 m/s 735 mmHg 33%
    12:00 +40°C° 0 mm 4 m/s 735 mmHg 27%
    13:00 +40°C° 0 mm 4 m/s 734 mmHg 26%
    14:00 +41°C° 0 mm 4 m/s 733 mmHg 24%
    15:00 +41°C° 0 mm 4 m/s 733 mmHg 23%
    16:00 +41°C° 0 mm 4 m/s 733 mmHg 24%
    17:00 +40°C° 0 mm 4 m/s 733 mmHg 24%
    18:00 +40°C° 0 mm 4 m/s 733 mmHg 25%
    19:00 +38°C° 0 mm 4 m/s 734 mmHg 27%
    20:00 +38°C° 0 mm 4 m/s 734 mmHg 30%
    21:00 +37°C° 0 mm 5 m/s 735 mmHg 32%
    22:00 +36°C° 0 mm 4 m/s 734 mmHg 35%
    23:00 +36°C° 0 mm 4 m/s 734 mmHg 37%

    1 Octobre, Lundi

    Heure Température Précipitation Vent Pression Humidité
    00:00 +35°C° 0 mm 4 m/s 734 mmHg 40%
    01:00 +34°C° 0 mm 3 m/s 733 mmHg 42%
    02:00 +34°C° 0 mm 3 m/s 733 mmHg 44%
    03:00 +34°C° 0 mm 3 m/s 733 mmHg 47%
    04:00 +33°C° 0 mm 3 m/s 733 mmHg 50%
    05:00 +33°C° 0 mm 3 m/s 734 mmHg 52%
    06:00 +31°C° 0 mm 3 m/s 734 mmHg 55%
    07:00 +33°C° 0 mm 3 m/s 735 mmHg 52%
    08:00 +34°C° 0 mm 3 m/s 735 mmHg 50%
    09:00 +35°C° 0 mm 3 m/s 736 mmHg 47%
    10:00 +36°C° 0 mm 3 m/s 735 mmHg 41%
    11:00 +37°C° 0 mm 2 m/s 735 mmHg 36%
    12:00 +38°C° 0 mm 2 m/s 734 mmHg 31%
    13:00 +39°C° 0 mm 2 m/s 734 mmHg 28%
    14:00 +40°C° 0 mm 2 m/s 733 mmHg 26%
    15:00 +40°C° 0 mm 2 m/s 733 mmHg 24%
    16:00 +40°C° 0 mm 2 m/s 733 mmHg 24%
    17:00 +40°C° 0 mm 3 m/s 733 mmHg 25%
    18:00 +40°C° 0 mm 3 m/s 733 mmHg 26%
    19:00 +40°C° 0 mm 4 m/s 733 mmHg 30%
    20:00 +38°C° 0 mm 4 m/s 734 mmHg 34%
    21:00 +37°C° 0 mm 5 m/s 734 mmHg 38%
    22:00 +36°C° 0 mm 5 m/s 734 mmHg 42%
    23:00 +35°C° 0 mm 4 m/s 734 mmHg 45%
    Voir plus